Terug naar catalogus

USA 422

ActiefMilitairVLEO
NORAD 61645·PAYLOAD·🇺🇸 United States

Gelanceerd Oct 24, 2024 vanaf Vandenberg Space Force Base

Loading…

Volgende Passages (komende 24 uur)

TLE

VerouderdSource: Mike McCants

Epoch: Aug 12, 2026, 20:13 UTC

1 61645U 24192B   26224.84264998 0.00000000  00000-0  00000-0 0    09
2 61645  70.0320 124.5295 0003000 162.1993 197.8007 14.96713660    03

Volg USA 422 in realtime met AllMySat

Download on the App Store